AirNav   TITAN Aviation Fuels
 
 1513 users online  

KAOV Ava Bill Martin Memorial Airport
Ava, Missouri, USA

GOING TO AVA?


FAA INFORMATION EFFECTIVE 19 MAY 2022

Location

FAA Identifier: AOV
Lat/Long: 36-58-18.7940N 092-40-55.0050W
36-58.313233N 092-40.916750W
36.9718872,-92.6819458
(estimated)
Elevation: 1311 ft. / 399.6 m (surveyed)
Variation: 02E (2000)
From city: 2 miles NW of AVA, MO
Time zone: UTC -5 (UTC -6 during Standard Time)
Zip code: 65608

Airport Operations

Airport use: Open to the public
Control tower: no
ARTCC: KANSAS CITY CENTER
FSS: COLUMBIA FLIGHT SERVICE STATION
NOTAMs facility: COU (NOTAM-D service available)
Attendance: UNATNDD
Wind indicator: lighted
Segmented circle: yes
Lights: ACTVT MIRL RY 13/31 - CTAF.
Beacon: white-green (lighted land airport)
Operates sunset to sunrise.

Airport Communications

CTAF/UNICOM: 122.7
SPRINGFIELD APPROACH: 126.35
SPRINGFIELD DEPARTURE: 126.35

Nearby radio navigation aids

VOR radial/distance  VOR name  Freq  Var
DGDr107/9.8DOGWOOD VORTAC109.4001E
SGFr122/38.8SPRINGFIELD VORTAC116.9004E

Airport Services

Fuel available: 100LL
Parking: tiedowns
Airframe service: MAJOR
Powerplant service: MAJOR
Bottled oxygen: NONE
Bulk oxygen: NONE

Runway Information

Runway 13/31

Dimensions: 3634 x 50 ft. / 1108 x 15 m
Surface: asphalt, in excellent condition
Runway edge lights: medium intensity
RUNWAY 13  RUNWAY 31
Latitude: 36-58.534085N36-58.093648N
Longitude: 092-41.169547W092-40.663890W
Elevation: 1277.0 ft.1311.0 ft.
Traffic pattern: leftleft
Runway heading: 135 magnetic, 137 true315 magnetic, 317 true
Markings: nonprecision, in good conditionnonprecision, in good condition
Visual slope indicator: 2-box SAVASI on left (3.00 degrees glide path)
Touchdown point: yes, no lightsyes, no lights
Obstructions: 33 ft. trees, 235 ft. from runway, 197 ft. right of centerline, 1:1 slope to clear
TREES 10-35' TALL, 10-175' FROM RUNWAY END, 150-250 FT RIGHT
none

Airport Ownership and Management from official FAA records

Ownership: Publicly-owned
Owner: CITY OF AVA
404 SOUTH JEFFERSON ST, P.O. BOX 967
AVA, MO 65608
Phone 417-683-5516
Manager: DAVID DAVIDSON
PO BOX 967
AVA, MO 65608
Phone 417-683-3169

Airport Operational Statistics

Aircraft based on the field: 10
Single engine airplanes: 8
Multi engine airplanes: 2
    
Aircraft operations: avg 127/week *
73% local general aviation
18% transient general aviation
8% military
<1% air taxi
* for 12-month period ending 31 December 2018

Additional Remarks

NTSD RY SAFETY AREA BYD RY 13 END, INSUF LENGTH AND LARGE DROP OFF.
100LL SELF SVC CREDIT CARD AVBL 24 HRS.
CLICK PCL 5 TIMES TO UNLOCK TERMINAL DOOR.
FOR CD CTC SPRINGFIELD APCH AT 417-868-5620/5619.

Instrument Procedures

NOTE: All procedures below are presented as PDF files. If you need a reader for these files, you should download the free Adobe Reader.

NOT FOR NAVIGATION. Please procure official charts for flight.
FAA instrument procedures published for use from 19 May 2022 at 0901Z to 16 June 2022 at 0900Z.

 
IAPs - Instrument Approach Procedures
RNAV (GPS) RWY 13   download (188KB)
RNAV (GPS) RWY 31   download (179KB)
VOR-A   download (185KB)
NOTE: Special Take-Off Minimums/Departure Procedures apply   download (421KB)

Other nearby airports with instrument procedures:

1MO - Mountain Grove Memorial Airport (20 nm NE)
KTVB - Cabool Memorial Airport (30 nm E)
3DW - Downtown Airport (31 nm NW)
KPLK - M Graham Clark Downtown Airport (33 nm SW)
KBBG - Branson Airport (36 nm SW)
 
Loc | Ops | Rwys | IFR | FBO | Links
Com | Nav | Svcs | Stats | Notes

Branson Jet Center
AirBoss

 
Area around KAOV (Ava Bill Martin Memorial Airport)
 
Road maps at: MapQuest Bing Google
 
Aerial photo
WARNING: Photo may not be current or correct
Aerial photo of KAOV (Ava Bill Martin Memorial Airport)
Do you have a better or more recent aerial photo of Ava Bill Martin Memorial Airport that you would like to share? If so, please send us your photo.

 
Sectional chart

 
Airport distance calculator
Flying to Ava Bill Martin Memorial Airport? Find the distance to fly.

From to KAOV

Sunrise and sunset
Times for 26-May-2022
 Local
(UTC-5)
 Zulu
(UTC)
Morning civil twilight05:2610:26
Sunrise05:5610:56
Sunset20:1901:19
Evening civil twilight20:4901:49

Current date and time
Zulu (UTC)  26-May-2022 14:31:22
Local (UTC-5)  26-May-2022 09:31:22
 
METAR
KBBG 
36nm SW 
261345Z 19004KT 3SM BR BKN018 12/12 A2975
KSGF 
37nm NW 
261407Z 19006KT 10SM -RA FEW009 BKN014 OVC021 13/12 A2971 RMK AO2 P0000 T01280117
KBPK 
38nm S 
261353Z AUTO 21006KT 7SM -RA SCT032 BKN042 OVC050 12/12 A2975 RMK AO2 SLP071 P0007 T01220117
KUNO 
38nm E 
261353Z AUTO A2977 RMK AO2 SLPNO PWINO $
KFWB 
38nm SW 
261415Z AUTO VRB04G11KT 4SM BR FEW008 BKN014 BKN020 12/12 A2973 RMK AO2
KLBO 
41nm N 
261415Z AUTO 17007KT 10SM DZ OVC012 13/12 A2974 RMK AO2
KFLP 
43nm S 
261420Z AUTO 18003KT 9SM -RA FEW014 BKN035 OVC046 13/12 A2978 RMK AO2 P0002
KHRO 
48nm SW 
261353Z AUTO 23003KT 8SM -RA FEW015 BKN021 OVC029 12/11 A2975 RMK AO2 RAE17B31 SLP070 P0001 T01220111
TAF
KBBG 
36nm SW 
261120Z 2612/2712 19005KT 6SM -RA BR OVC025 TEMPO 2612/2613 4SM -SHRA BR OVC015 FM261300 18006KT 4SM -RA BR BKN009 TEMPO 2613/2615 2SM -RA BR OVC005 FM261500 20012G18KT 4SM -SHRA BR OVC007 FM261800 23007KT 6SM -SHRA BR OVC010 FM262100 26008KT P6SM BKN011 PROB30 2621/2624 4SM -SHRA BR OVC009 FM270100 26012KT 5SM BR OVC015
KSGF 
37nm NW 
261120Z 2612/2712 18007KT 6SM -RA BR SCT015 OVC025 TEMPO 2612/2616 2SM -RA BR OVC009 FM261600 21006KT 5SM -RA BR OVC009 FM262200 28012KT 4SM BR OVC009 PROB30 2622/2701 3SM -RA BR OVC007 FM270600 30012KT 6SM BR OVC007
KBPK 
38nm S 
261120Z 2612/2712 VRB06KT P6SM VCSH SCT025 BKN040 OVC060 TEMPO 2612/2616 4SM SHRA BR BKN025 FM261600 23008KT 5SM -SHRA BR BKN015 OVC025 FM261800 25010G18KT 5SM -SHRA BR VCTS BKN008 OVC025CB FM262200 27008G16KT P6SM VCSH BKN008 OVC015 PROB30 2622/2704 4SM -SHRA BR OVC008 FM270400 VRB06KT 5SM BR BKN008 OVC015
NOTAMs
Click for the latest NOTAMs
NOTAMs are issued by the DoD/FAA and will open in a separate window not controlled by AirNav.

 

 
 

FBO, Fuel Providers, and Aircraft Ground Support

  
 Business Name 
 
 Contact 
 
 Services / Description 
 
Fuel Prices
 
Comments
  
City of Ava, Missouri 417-840-2301
417-683-5516
[web site]
[email]
Aviation fuel, Aircraft parking (ramp or tiedown), Passenger terminal and lounge, Aircraft maintenance, Rental cars delivered, Public telephone, Computerized weather, ...

More info about City of Ava, Missouri
Phillips 66
100LL
SS $5.95 
 Updated 19-May-2022
 
   write
SS=Self service
Update Fuel Prices
 

Would you like to see your business listed on this page?

 If your business provides an interesting product or service to pilots, flight crews, aircraft, or users of the Ava Bill Martin Memorial Airport, you should consider listing it here.  To start the listing process, click on the button below
 
Add a business
 

Other Pages about Ava Bill Martin Memorial Airport

Update a link
 
Copyright © AirNav, LLC. All rights reserved. Privacy Policy  Contact